Location: Kikino
(54.4440°N, 112.0940°W)
Time: 19:18:26
(UTC+00:00)

A-11 Canister half - Pass Details

Date: 26 May 2024
Orbit: 1525 x 1683 km, 47.3° (Epoch: 12 June)

Event Time Altitude Azimuth Distance (km) Brightness Sun altitude
Rises 03:32:35 0° 215° (SW) 4,671 11.5 0.5°
Reaches altitude 10° 03:35:56 10° 207° (SSW) 3,701 10.9 0.1°
Maximum altitude 03:44:01 35° 146° (SSE) 2,334 9.5 -0.8°
Drops below altitude 10° 03:52:17 10° 86° (E) 3,799 10.7 -1.7°
Sets 03:55:46 0° 78° (ENE) 4,810 11.2 -2.1°
